DW7061 Weather Reports


Display with metric or nautical units.
time (UTC)temp
F
wind
direction
speed
MPH
gust
MPH
rain 1hr
in
rain 24hr
in
rain mn
in
humidity
%
barometer
mb
20260509231018 50 0.0 3.0 0.00 0.00 0.00 96 1010.2
20260509230018 50 0.0 4.0 0.00 0.00 0.00 96 1010.2
20260509225017 50 0.0 1.0 0.00 0.00 0.00 96 1010.2
20260509224017 50 0.0 2.0 0.00 0.00 0.00 96 1010.1
20260509223037 50 0.0 0.0 0.00 0.00 0.00 96 1010.0
20260509222037 50 0.0 3.0 0.00 0.00 0.00 96 1010.1
20260509221018 50 0.0 1.0 0.00 0.00 0.00 96 1010.1
20260509220017 50 0.0 1.0 0.00 0.00 0.00 96 1010.0
20260509215017 49 0.0 2.0 0.00 0.00 0.00 96 1010.0
20260509214038 49 0.0 0.0 0.00 0.00 0.00 96 1010.1
20260509213017 50 0.0 0.0 0.00 0.00 0.00 96 1010.3
20260509212017 50 0.0 0.0 0.00 0.00 0.00 96 1010.4
20260509211018 49 0.0 0.0 0.00 0.00 0.00 96 1010.4
20260509210017 49 0.0 2.0 0.00 0.00 0.00 95 1010.6
20260509205017 49 0.0 0.0 0.00 0.00 0.00 95 1010.7
20260509204017 49 0.0 0.0 0.00 0.00 0.00 95 1010.8
20260509203038 49 0.0 0.0 0.00 0.00 0.00 95 1011.1
20260509202017 49 0.0 0.0 0.00 0.00 0.00 95 1011.2
20260509201038 49 0.0 1.0 0.00 0.00 0.00 95 1011.1
20260509200017 49 0.0 1.0 0.00 0.00 0.00 95 1011.1
20260509195137 49 0.0 0.0 0.00 0.00 0.00 95 1010.9
20260509194037 49 0.0 0.0 0.00 0.00 0.00 95 1010.9
20260509193017 49 0.0 0.0 0.00 0.00 0.00 95 1011.0
20260509192017 49 0.0 0.0 0.00 0.00 0.00 95 1010.9
20260509191017 49 0.0 0.0 0.00 0.00 0.00 95 1010.9
20260509190058 48 0.0 0.0 0.00 0.00 0.00 95 1010.8
20260509185037 48 0.0 0.0 0.00 0.00 0.00 95 1010.7
20260509184017 48 0.0 1.0 0.00 0.00 0.00 95 1010.8
20260509183017 48 0.0 0.0 0.00 0.00 0.00 95 1011.0
20260509182017 48 0.0 1.0 0.00 0.00 0.00 95 1011.1
20260509181038 47 0.0 0.0 0.00 0.00 0.00 95 1011.0
20260509180017 47 0.0 1.0 0.00 0.00 0.00 95 1011.1
20260509175017 46 0.0 0.0 0.00 0.00 0.00 95 1011.0
20260509174017 46 0.0 0.0 0.00 0.00 0.00 95 1011.1
20260509173018 46 0.0 1.0 0.00 0.00 0.00 94 1011.4
20260509172017 46 0.0 0.0 0.00 0.00 0.00 94 1011.6
20260509171037 46 0.0 1.0 0.00 0.00 0.00 94 1011.8
20260509170017 45 0.0 1.0 0.00 0.00 0.00 94 1011.8
20260509165037 45 0.0 0.0 0.00 0.00 0.00 94 1011.7
20260509164017 45 0.0 1.0 0.00 0.00 0.00 94 1011.9
20260509163017 45 0.0 0.0 0.00 0.00 0.00 94 1012.1
20260509162038 44 0.0 2.0 0.00 0.00 0.00 94 1012.0
20260509161017 44 0.0 0.0 0.00 0.00 0.00 94 1012.0
20260509160017 44 0.0 0.0 0.00 0.00 0.00 94 1012.1
20260509155017 44 0.0 0.0 0.00 0.00 0.00 94 1011.9
20260509154017 44 0.0 0.0 0.00 0.00 0.00 94 1011.7
20260509153017 44 0.0 1.0 0.00 0.00 0.00 94 1011.8
20260509152017 43 0.0 2.0 0.00 0.00 0.00 93 1011.8
20260509151037 43 0.0 2.0 0.00 0.00 0.00 94 1011.9
20260509150017 43 0.0 2.0 0.00 0.00 0.00 93 1011.9
20260509145017 43 0.0 1.0 0.00 0.00 0.00 93 1012.0
20260509144017 42 0.0 2.0 0.00 0.00 0.00 93 1012.1
20260509143017 42 0.0 2.0 0.00 0.00 0.00 93 1012.1
20260509142017 42 90 1.0 3.0 0.00 0.00 0.00 93 1012.0
20260509141037 41 0.0 2.0 0.00 0.00 0.00 93 1012.3
20260509140038 41 0.0 2.0 0.00 0.00 0.00 93 1012.4
20260509135016 41 0.0 4.0 0.00 0.00 0.00 93 1012.4
20260509134017 41 0.0 4.0 0.00 0.00 0.00 93 1012.5
20260509133017 41 0.0 2.0 0.00 0.00 0.00 93 1012.6
20260509132017 41 0.0 2.0 0.00 0.00 0.00 93 1012.7
20260509131017 41 0.0 2.0 0.00 0.00 0.00 92 1012.6
20260509130017 41 0.0 0.0 0.00 0.00 0.00 92 1012.5
20260509125017 41 0.0 0.0 0.00 0.00 0.00 92 1012.4
20260509124017 41 0.0 0.0 0.00 0.00 0.00 91 1012.5
20260509123017 41 0.0 0.0 0.00 0.00 0.00 91 1012.7
20260509122017 41 0.0 0.0 0.00 0.00 0.00 92 1012.7
20260509121017 41 0.0 0.0 0.00 0.00 0.00 92 1013.0
20260509120017 41 0.0 0.0 0.00 0.00 0.00 92 1013.1
20260509115037 41 0.0 0.0 0.00 0.00 0.00 92 1013.0
20260509114037 41 0.0 0.0 0.00 0.00 0.00 92 1013.4
20260509113118 41 0.0 0.0 0.00 0.00 0.00 92 1013.3
20260509112016 41 0.0 0.0 0.00 0.00 0.00 93 1013.5
20260509111017 41 0.0 0.0 0.00 0.00 0.00 93 1013.6
20260509110019 41 0.0 0.0 0.00 0.00 0.00 93 1013.6
20260509105017 41 0.0 0.0 0.00 0.00 0.00 93 1013.7
20260509104057 41 0.0 0.0 0.00 0.00 0.00 93 1013.6
20260509103038 41 0.0 0.0 0.00 0.00 0.00 92 1013.4
20260509102018 41 0.0 1.0 0.00 0.00 0.00 92 1013.3
20260509101017 41 0.0 1.0 0.00 0.00 0.00 91 1013.3
20260509100017 41 0.0 1.0 0.00 0.00 0.00 89 1013.4
20260509095017 42 0.0 1.0 0.00 0.00 0.00 82 1013.6
20260509094018 43 0.0 0.0 0.00 0.00 0.00 75 1013.7
20260509093037 43 0.0 0.0 0.00 0.00 0.00 70 1013.3
20260509092017 44 0.0 0.0 0.00 0.00 0.00 68 1013.4
20260509091037 44 0.0 0.0 0.00 0.00 0.00 65 1013.3
20260509090017 44 0.0 0.0 0.00 0.00 0.00 65 1013.3
20260509085018 44 0.0 0.0 0.00 0.00 0.00 66 1012.9
20260509084017 44 0.0 0.0 0.00 0.00 0.00 66 1012.8
20260509083017 44 0.0 0.0 0.00 0.00 0.00 66 1012.7
20260509082016 43 0.0 0.0 0.00 0.00 0.00 67 1012.6
20260509081017 43 0.0 0.0 0.00 0.00 0.00 68 1012.7
20260509080017 43 0.0 0.0 0.00 0.00 0.00 68 1012.9
20260509075016 42 0.0 0.0 0.00 0.00 0.00 69 1012.5
20260509074018 42 0.0 0.0 0.00 0.00 0.00 71 1012.6
20260509073038 41 0.0 0.0 0.00 0.00 0.00 72 1012.5
20260509072037 41 0.0 0.0 0.00 0.00 0.00 72 1012.7
20260509071017 41 0.0 0.0 0.00 0.00 0.00 72 1012.6
20260509070016 41 0.0 0.0 0.00 0.00 0.00 73 1012.8
20260509065017 41 0.0 0.0 0.00 0.00 0.00 73 1012.6
20260509064018 41 0.0 0.0 0.00 0.00 0.00 72 1012.7
20260509063037 41 0.0 0.0 0.00 0.00 0.00 72 1012.7
20260509062016 40 0.0 0.0 0.00 0.00 0.00 73 1012.8
20260509061017 40 0.0 0.0 0.00 0.00 0.00 73 1012.8
20260509060017 41 0.0 0.0 0.00 0.00 0.00 71 1012.5
20260509055017 41 0.0 0.0 0.00 0.00 0.00 71 1012.4
20260509054016 40 0.0 0.0 0.00 0.00 0.00 72 1012.5
20260509053016 40 0.0 0.0 0.00 0.00 0.00 73 1012.5
20260509052017 40 0.0 0.0 0.00 0.00 0.00 74 1012.5
20260509051017 40 0.0 0.0 0.00 0.00 0.00 73 1012.6
20260509050017 40 0.0 0.0 0.00 0.00 0.00 73 1012.5
20260509045037 40 0.0 0.0 0.00 0.00 0.00 73 1012.6
20260509044016 40 0.0 0.0 0.00 0.00 0.00 73 1012.5
20260509043017 40 0.0 0.0 0.00 0.00 0.00 72 1012.5
20260509042016 40 0.0 0.0 0.00 0.00 0.00 73 1012.6
20260509041036 40 0.0 0.0 0.00 0.00 0.00 73 1012.5
20260509040038 40 0.0 0.0 0.00 0.00 0.00 73 1012.4
20260509035017 41 0.0 0.0 0.00 0.00 0.00 72 1012.4
20260509034018 41 0.0 0.0 0.00 0.00 0.00 71 1012.4
20260509033038 41 0.0 0.0 0.00 0.00 0.00 70 1012.4
20260509032017 41 0.0 0.0 0.00 0.00 0.00 71 1012.3
20260509031017 41 0.0 0.0 0.00 0.00 0.00 72 1012.2
20260509030018 40 0.0 0.0 0.00 0.00 0.00 73 1012.0
20260509025017 41 0.0 0.0 0.00 0.00 0.00 73 1012.1
20260509024017 41 0.0 0.0 0.00 0.00 0.00 73 1012.1
20260509023017 41 0.0 0.0 0.00 0.00 0.00 74 1012.1
20260509022018 41 0.0 0.0 0.00 0.00 0.00 73 1012.1
20260509021017 41 0.0 0.0 0.00 0.00 0.00 72 1011.9
20260509020017 42 0.0 0.0 0.00 0.00 0.00 71 1011.8
20260509015017 43 0.0 0.0 0.00 0.00 0.00 70 1011.7
20260509014017 43 0.0 0.0 0.00 0.00 0.00 69 1011.5
20260509013038 43 0.0 0.0 0.00 0.00 0.00 69 1011.3
20260509012058 43 0.0 0.0 0.00 0.00 0.00 69 1011.1
20260509011017 44 0.0 0.0 0.00 0.00 0.00 69 1010.9
20260509010017 44 0.0 0.0 0.00 0.00 0.00 68 1010.8
20260509005017 44 0.0 0.0 0.00 0.00 0.00 69 1010.6
20260509004037 44 0.0 0.0 0.00 0.00 0.00 68 1010.3
20260509003037 45 0.0 0.0 0.00 0.00 0.00 66 1010.2
20260509002018 46 0.0 0.0 0.00 0.00 0.00 64 1010.2
20260509001017 47 0.0 0.0 0.00 0.00 0.00 61 1010.2
20260509000017 48 0.0 0.0 0.00 0.00 0.00 60 1010.0
20260508235018 48 0.0 0.0 0.00 0.00 0.00 58 1009.8
20260508234017 49 0.0 4.0 0.00 0.00 0.00 57 1009.8
20260508233017 50 270 1.0 6.0 0.00 0.00 0.00 55 1009.7
20260508232038 51 248 1.0 6.0 0.00 0.00 0.00 53 1009.6